This is the latest recevied weather packets stored in our database for station/object KC7YCE. If no packets are shown the sender has not sent any weather packets the latest 10 day(s).
| Time | Temp. | Humidity | Pressure | Rain* | Wind** | Luminosity | Snow |
|---|---|---|---|---|---|---|---|
| 1777204752 | 0° C | 91% | 1009.8 hPa | 0 mm | - | - | - |
| 1777203492 | 0° C | 90% | 1009.9 hPa | 0 mm | - | - | - |
| 1777202862 | 0° C | 89% | 1010 hPa | 0 mm | - | - | - |
| 1777202262 | 0° C | 89% | 1010.2 hPa | 0 mm | - | - | - |
| 1777201062 | 0.56° C | 86% | 1010.2 hPa | 0 mm | - | - | - |
| 1777200462 | 1.11° C | 82% | 1010.3 hPa | 0 mm | - | - | - |
| 1777199832 | 1.11° C | 78% | 1010.3 hPa | 0 mm | - | - | - |
| 1777199232 | 1.11° C | 76% | 1010.3 hPa | 0 mm | - | - | - |
| 1777198603 | 1.11° C | 74% | 1010.3 hPa | 0 mm | - | - | - |
| 1777198003 | 1.11° C | 74% | 1010.4 hPa | 0 mm | - | - | - |
| 1777197403 | 1.11° C | 74% | 1010.4 hPa | 0 mm | - | - | - |
| 1777196202 | 1.11° C | 73% | 1010.5 hPa | 0 mm | - | - | - |
| 1777195601 | 1.11° C | 72% | 1010.6 hPa | 0 mm | - | - | - |
| 1777195001 | 1.11° C | 71% | 1010.6 hPa | 0 mm | - | - | - |
| 1777194401 | 1.11° C | 70% | 1010.7 hPa | 0 mm | - | - | - |
| 1777193801 | 1.11° C | 70% | 1010.9 hPa | 0 mm | - | - | - |
| 1777193173 | 0.56° C | 71% | 1011 hPa | 0 mm | - | - | - |
| 1777192572 | 1.11° C | 72% | 1011.1 hPa | 0 mm | - | - | - |
| 1777191971 | 1.11° C | 69% | 1011.2 hPa | 0 mm | - | - | - |
| 1777190171 | 0.56° C | 67% | 1011.5 hPa | 0 mm | - | - | - |
| 1777189571 | 0.56° C | 67% | 1011.6 hPa | 0 mm | - | - | - |
| 1777188971 | 0.56° C | 68% | 1011.7 hPa | 0 mm | - | - | - |
| 1777188371 | 0° C | 68% | 1011.8 hPa | 0 mm | - | - | - |
| 1777187171 | -0.56° C | 69% | 1011.8 hPa | 0 mm | - | - | - |
| 1777186571 | -0.56° C | 70% | 1011.9 hPa | 0 mm | - | - | - |
* Rain latest hour (hover to see other rain measurements)
** Current wind speed in m/s (hover to see current wind gust speed)